Regional Weather Roundup
Issued by NWS State College, PA

Home | Current Version | Previous Version | Graphics & Text | Print | Product List | Glossary Off
Versions: 1 2 3 4 5 6 7 8 9 10 11 12 13 14 15 16 17 18 19 20 21 22 23 24 25 26 27 28 29 30 31 32 33 34 35 36 37 38 39 40 41 42 43 44 45 46 47 48 49 50

000
ASUS41 KCTP 222210
RWRCTP

REGIONAL WEATHER ROUNDUP
NATIONAL WEATHER SERVICE STATE COLLEGE PA
600 PM EDT WED MAR 22 2017

Note: "fair" indicates few or no clouds below 12,000 feet with no
significant weather and/or obstructions to visibility.

* = STATION THAT DOES NOT REPORT PRECIPITATION /E.G. RAIN...SNOW...ETC/
    THUNDER OR FOG.

PAZ002>004-007>009-013>016-020>023-029>032-222300-
WESTERN PENNSYLVANIA

CITY           SKY/WX    TMP DP  RH WIND       PRES   REMARKS
ERIE           SUNNY     27   8  44 W6        30.52S
MEADVILLE      SUNNY     26   7  44 NW8       30.46R
FRANKLIN*      SUNNY     28   3  34 N8        30.44R
NEW CASTLE     FAIR      32   9  38 N12       30.47R
BEAVER COUNTY  SUNNY     34   7  32 NW8       30.43S
BUTLER*        SUNNY     36   7  30 NW8       30.43S
PITTSBURGH INT SUNNY     36   4  26 N13       30.42R
PITTSBURGH     SUNNY     36   1  22 N12G21    30.40R
INDIANA*       SUNNY     36   5  27 N10G20    30.41R
LATROBE        SUNNY     36   3  25 N10G18    30.40R
WASHINGTON CO* SUNNY     37   3  23 NW9G18    30.44R
$$

PAZ004>006-010>012-017>019-024>028-033>037-041-042-045-046-049>053-222300-
CENTRAL PENNSYLVANIA

CITY           SKY/WX    TMP DP  RH WIND       PRES   REMARKS
BRADFORD       SUNNY     24   1  36 NW10      30.35R WCI  14
DUBOIS         SUNNY     30   0  27 N12       30.35R
CLEARFIELD       N/A    N/A N/A N/A MISG      30.36R
JOHNSTOWN      SUNNY     32   3  29 NW14G25   30.30R
ALTOONA        SUNNY     36   3  25 NW16      30.33R
STATE COLLEGE  SUNNY     34   0  23 NW10G18   30.34R
WILLIAMSPORT   MOSUNNY   34  -4  19 NW14G23   30.37R
SELINSGROVE    SUNNY     35   4  27 N18G25    30.36R
FT INDIANTOWN  SUNNY     36  -1  20 VRB6G20   30.33R
CAPITAL CITY   SUNNY     41  -3  15 NW15G22   30.33R
HARRISBURG     SUNNY     40   0  18 N14G28    30.32R
YORK           SUNNY     40   4  22 NW16G26   30.31R
$$

PAZ038>040-043-044-047-048-054-055-060>062-067>071-222300-
EASTERN PENNSYLVANIA

CITY           SKY/WX    TMP DP  RH WIND       PRES   REMARKS
SCRANTON       MOSUNNY   25   2  37 NW14G26   30.34R WCI  13
MOUNT POCONO   SUNNY     20  -1  40 NW23G37   30.20R WCI   3
ALLENTOWN      MOSUNNY   33   0  24 NW18G28   30.33R
QUAKERTOWN*    PTCLDY    32   0  25 N16G25    30.32R
READING        MOSUNNY   35   3  26 N16G30    30.33R
LANCASTER      MOSUNNY   38   4  24 N15       30.32R
COATESVILLE    PTCLDY    34   1  25 N15G23    30.31R
POTTSTOWN      SUNNY     34   1  24 NW16G28   30.33R
BLUE BELL      SUNNY     32   5  32 N8G16     30.31R
DOYLESTOWN     SUNNY     27   0  31 N15G31    30.31R
WILLOW GROVE   NOT AVBL
NORTH PHILA    SUNNY     36  -1  21 NW22G30   30.33R
PHILADELPHIA   SUNNY     38   1  21 NW22G32   30.32R
$$




USA.gov is the U.S. government's official web portal to all federal, state and local government web resources and services.